Regional Weather Roundup
Issued by NWS

Home | Current Version | Previous Version | Text Only | Print | Product List | Glossary Off
Versions: 1 2 3 4 5 6 7 8 9 10 11 12 13 14 15 16 17 18 19 20 21 22 23 24 25 26 27 28 29 30 31 32 33 34 35 36 37 38 39 40 41 42 43 44 45 46 47 48 49 50

000
ASUS43 KBIS 300331
RWRND
NORTH DAKOTA REGIONAL WEATHER ROUNDUP
NATIONAL WEATHER SERVICE EASTERN NORTH DAKOTA/GRAND FORKS ND
1000 PM CDT MON MAY 29 2017

  NOTE: "FAIR" INDICATES FEW OR NO CLOUDS BELOW 12,000 FEET WITH NO
  SIGNIFICANT WEATHER AND/OR OBSTRUCTIONS TO VISIBILITY.

NDZ001>003-009>011-017-300400-
...NORTHWEST NORTH DAKOTA...

CITY           SKY/WX    TMP DP  RH WIND       PRES   REMARKS
WILLISTON      FAIR      53  31  42 NW9       30.04S
MINOT          FAIR      50  39  66 N7        30.00R
MINOT AFB      FAIR      53  39  61 N5        29.99R
$$

NDZ018>021-031>035-040>046-300400-
...SOUTHWEST NORTH DAKOTA...

CITY           SKY/WX    TMP DP  RH WIND       PRES   REMARKS
BISMARCK       FAIR      57  37  47 NW6       29.99S
DICKINSON      FAIR      52  28  39 N7        30.04S
GARRISON         N/A     52  38  58 NE6       29.99R
HETTINGER      FAIR      50  32  50 N6        30.07S
$$

NDZ004>008-012>016-024-026-027-054-300400-
...NORTHEAST NORTH DAKOTA...

CITY           SKY/WX    TMP DP  RH WIND       PRES   REMARKS
GRAND FORKS    CLOUDY    50  43  77 NW14      29.91S
GRAND FORKS AF CLOUDY    49  42  79 N13       29.92R
DEVILS LAKE    CLOUDY    51  42  71 N21       29.95R
$$

NDZ022-023-025-028>030-036>039-047>053-300400-
...SOUTHEAST NORTH DAKOTA...

CITY           SKY/WX    TMP DP  RH WIND       PRES   REMARKS
JAMESTOWN      MOCLDY    53  41  63 NW10      29.94R
FARGO          CLOUDY    53  46  77 N10       29.91R
WAHPETON       CLOUDY    54  43  66 NW8       29.92S
$$




USA.gov is the U.S. government's official web portal to all federal, state and local government web resources and services.